Location: ??
(36.7391°N, 127.5151°E)
Time: 11:45:01
(UTC+00:00)

IRS-1A Rocket - Pass Details

Date: 07 June 2020
Orbit: 851 x 931 km, 99.2° (Epoch: 14 July)

Event Time Altitude Azimuth Distance (km) Brightness Sun altitude
Rises 11:10:13 0° 166° (SSE) 3,526 7.0 -4.8°
Reaches altitude 10° 11:12:38 10° 166° (SSE) 2,578 6.3 -5.2°
Maximum altitude 11:18:24 86° 256° (WSW) 899 4.4 -6.2°
Drops below altitude 10° 11:24:04 10° 345° (NNW) 2,539 7.5 -7.1°
Sets 11:26:26 0° 346° (NNW) 3,470 8.3 -7.5°
